Overview Statistics Trail Chart Weather Telemetry Raw packets
 

This is the latest recevied weather packets stored in our database for station/object OE6ATD-13. If no packets are shown the sender has not sent any weather packets the latest 10 day(s).

<< 23 24 25 26 27 28 29 >>
Time Temp. Humidity Pressure Rain* Wind** Luminosity Snow
1788349824 27.78° C 50% 1020.6 hPa 0 mm - 776 W/m² -
1788349220 27.78° C 51% 1020.6 hPa 0 mm - 825 W/m² -
1788348615 27.22° C 52% 1020.7 hPa 0 mm - 826 W/m² -
1788348027 27.78° C 51% 1020.9 hPa 0 mm - 841 W/m² -
1788347418 27.22° C 51% 1021 hPa 0 mm - 846 W/m² -
1788346830 27.22° C 54% 1021.1 hPa 0 mm - 839 W/m² -
1788346225 27.22° C 52% 1021.1 hPa 0 mm - 847 W/m² -
1788345621 26.67° C 56% 1021.3 hPa 0 mm - 835 W/m² -
1788345017 25.56° C 56% 1021.4 hPa 0 mm - 826 W/m² -
1788344428 25.56° C 54% 1021.6 hPa 0 mm - 825 W/m² -
1788343822 26.11° C 55% 1021.6 hPa 0 mm - 821 W/m² -
1788343218 25° C 59% 1021.8 hPa 0 mm - 805 W/m² -
1788342629 25° C 59% 1021.8 hPa 0 mm - 793 W/m² -
1788342025 24.44° C 60% 1021.9 hPa 0 mm - 769 W/m² -
1788341421 24.44° C 62% 1021.9 hPa 0 mm - 753 W/m² -
1788340816 23.89° C 62% 1021.9 hPa 0 mm - 729 W/m² -
1788340228 23.89° C 64% 1021.9 hPa 0 mm - 714 W/m² -
1788339623 22.78° C 65% 1022 hPa 0 mm - 689 W/m² -
1788339019 22.78° C 66% 1022 hPa 0 mm - 663 W/m² -
1788338451 22.22° C 67% 1022 hPa 0 mm - 636 W/m² -
1788337826 21.67° C 71% 1022.1 hPa 0 mm - 609 W/m² -
1788337221 22.22° C 72% 1022 hPa 0 mm - 591 W/m² -
1788336618 21.11° C 75% 1022.1 hPa 0 mm - 531 W/m² -
1788336028 21.67° C 74% 1022.1 hPa 0 mm - 351 W/m² -
1788335427 21.11° C 77% 1022 hPa 0 mm - 500 W/m² -

* Rain latest hour (hover to see other rain measurements)
** Current wind speed in m/s (hover to see current wind gust speed)